Tracking 18980 objects as of 20-Feb-2018
HD Live streaming from Space Station
objects crossing your sky now

FENGYUN 1C DEB

Track FENGYUN 1C DEB now!
10-day predictions


NORAD ID: 38119
Int'l Code: 1999-025EPQ
Perigee: 733.2 km
Apogee: 1,284.8 km
Inclination: 98.6 °
Period: 105.2 minutes
Semi major axis: 7379 km
RCS: 0.008 m2 (small)
Launch date: May 10, 1999
Source: People's Republic of China (PRC)
Launch site: Taiyaun Space Center, China (TSC)

Note: This is SATELLITE DEBRIS
aabbcc
Your satellite tracking list
Your tracking list is empty




NASA's NSSDC Master Catalog

Two Line Element Set (TLE):
1 38119U 99025EPQ 18048.59127609 +.00002710 +00000-0 +19329-2 0  9993
2 38119 098.6154 333.3610 0373753 053.2531 067.2421 13.69364210146168
Source of the keplerian elements: AFSPC